Location: Niedergestelen
(46.3129°N, 7.7822°E)
Time: 05:36:21
(UTC+00:00)

ERS-2 - Pass Details

Date: 01 December 2020
Orbit: 492 x 498 km, 98.6° (Epoch: 18 January)

Event Time Altitude Azimuth Distance (km) Brightness Sun altitude
Exits shadow 18:11:24 21° 338° (NNW) 1,186 4.1 -24.7°
Maximum altitude 18:13:07 31° 292° (WNW) 904 3.9 -25.0°
Drops below altitude 10° 18:16:22 10° 230° (SW) 1,699 5.5 -25.5°
Sets 18:18:35 0° 219° (SW) 2,577 6.4 -25.9°
